Starlink 34029

operational
NORAD ID: 63805 Int'l Des: 2025-092 Owner: SPXS Country: US Constellation: starlink
LEOCIRCULAR

About Starlink 34029

Description loading...

Live Position

Loading 3D Globe...

Upcoming Passes

Altitude History

Altitude vs Time

uPlot chart will show altitude changes over time

Two-Line Element Set

1 63805U 25092B 26102.38396414 .00009866 00000-0 36759-3 0 9991
2 63805 43.0032 342.6147 0001751 268.2033 91.8618 15.27576851 53762
Epoch: Apr 12, 2026 • Age: 8 hours

Current Status

Altitude 482.9 km
Velocity 7.63 km/s
Sub-Earth Point -0.58°S, 116.63°W
Launch Date May 4, 2025
Age 0.9 years
Type internet

Technical Details

Classification Payload
Mass 575.00 kg
Dry Mass 530.00 kg
Total Mass 575.00 kg
Length 0.30 m
Diameter 4.10 m
Span 29.00 m
Shape Box + pan
Manufacturer SPXS
Bus Type Starlink V2MO
Phase Status In Orbit
Owner/State SPXS/US

Large Constellations

Loading constellations...